Time,TemperatureF,DewpointF,PressureIn,WindDirection,WindDirectionDegrees,WindSpeedMPH,WindSpeedGustMPH,Humidity,HourlyPrecipIn,Conditions,Clouds,dailyrainin,SoftwareType,DateUTC
2013-07-17 00:02:00,74.0,72.0,30.30,East,100,0.0,0.0,92,0.00,,,0.00,,2013-07-17 05:02:00,
2013-07-17 00:11:00,74.0,72.0,30.29,East,100,0.0,0.0,92,0.00,,,0.00,,2013-07-17 05:11:00,
2013-07-17 00:22:00,74.0,72.0,30.29,East,100,0.0,0.0,92,0.00,,,0.00,,2013-07-17 05:22:00,
2013-07-17 00:32:00,74.0,72.0,30.29,East,100,0.0,0.0,92,0.00,,,0.00,,2013-07-17 05:32:00,
2013-07-17 00:43:00,74.0,72.0,30.29,East,100,0.0,0.0,93,0.00,,,0.00,,2013-07-17 05:43:00,
2013-07-17 00:52:00,74.0,72.0,30.29,East,100,0.0,0.0,93,0.00,,,0.00,,2013-07-17 05:52:00,
2013-07-17 01:01:00,74.0,72.0,30.29,East,100,0.0,0.0,93,0.00,,,0.00,,2013-07-17 06:01:00,
2013-07-17 01:11:00,74.0,72.0,30.29,East,100,0.0,0.0,93,0.00,,,0.00,,2013-07-17 06:11:00,
2013-07-17 01:22:00,73.0,71.0,30.29,East,100,0.0,0.0,93,0.00,,,0.00,,2013-07-17 06:22:00,
2013-07-17 01:32:00,73.0,71.0,30.29,East,100,0.0,0.0,93,0.00,,,0.00,,2013-07-17 06:32:00,
2013-07-17 01:43:00,73.0,71.0,30.29,East,100,0.0,0.0,93,0.00,,,0.00,,2013-07-17 06:43:00,
2013-07-17 01:52:00,73.0,71.0,30.29,East,100,0.0,0.0,94,0.00,,,0.00,,2013-07-17 06:52:00,
2013-07-17 02:01:00,73.0,71.0,30.29,East,100,0.0,0.0,94,0.00,,,0.00,,2013-07-17 07:01:00,
2013-07-17 02:11:00,73.0,71.0,30.29,East,100,0.0,0.0,94,0.00,,,0.00,,2013-07-17 07:11:00,
2013-07-17 02:22:00,73.0,71.0,30.28,East,100,0.0,0.0,94,0.00,,,0.00,,2013-07-17 07:22:00,
2013-07-17 02:32:00,73.0,71.0,30.28,East,100,0.0,0.0,94,0.00,,,0.00,,2013-07-17 07:32:00,
2013-07-17 02:42:00,73.0,71.0,30.29,East,100,0.0,0.0,94,0.00,,,0.00,,2013-07-17 07:42:00,
2013-07-17 02:52:00,73.0,71.0,30.29,East,100,0.0,0.0,94,0.00,,,0.00,,2013-07-17 07:52:00,
2013-07-17 03:01:00,73.0,71.0,30.29,East,100,0.0,0.0,94,0.00,,,0.00,,2013-07-17 08:01:00,
2013-07-17 03:11:00,72.0,70.0,30.28,East,100,0.0,0.0,95,0.00,,,0.00,,2013-07-17 08:11:00,
2013-07-17 03:22:00,72.0,70.0,30.28,East,100,0.0,0.0,95,0.00,,,0.00,,2013-07-17 08:22:00,
2013-07-17 03:32:00,72.0,70.0,30.28,East,100,0.0,0.0,95,0.00,,,0.00,,2013-07-17 08:32:00,
2013-07-17 03:43:00,72.0,70.0,30.28,East,100,0.0,0.0,95,0.00,,,0.00,,2013-07-17 08:43:00,
2013-07-17 03:53:00,72.0,70.0,30.28,East,100,0.0,0.0,95,0.00,,,0.00,,2013-07-17 08:53:00,
2013-07-17 04:02:00,72.0,70.0,30.28,East,100,0.0,0.0,95,0.00,,,0.00,,2013-07-17 09:02:00,
2013-07-17 04:12:00,72.0,70.0,30.28,NNW,339,0.0,0.0,94,0.00,,,0.00,,2013-07-17 09:12:00,
2013-07-17 04:22:00,72.0,70.0,30.29,NNW,339,0.0,0.0,95,0.00,,,0.00,,2013-07-17 09:22:00,
2013-07-17 04:32:00,72.0,70.0,30.29,NNW,339,0.0,0.0,95,0.00,,,0.00,,2013-07-17 09:32:00,
2013-07-17 04:43:00,72.0,70.0,30.29,NNW,339,0.0,0.0,95,0.00,,,0.00,,2013-07-17 09:43:00,
2013-07-17 04:52:00,72.0,70.0,30.29,NNW,339,0.0,0.0,95,0.00,,,0.00,,2013-07-17 09:52:00,
2013-07-17 05:01:00,72.0,70.0,30.29,NNW,339,0.0,0.0,95,0.00,,,0.00,,2013-07-17 10:01:00,
2013-07-17 05:11:00,72.0,70.0,30.29,NNW,339,0.0,0.0,95,0.00,,,0.00,,2013-07-17 10:11:00,
2013-07-17 05:22:00,72.0,70.0,30.30,NNW,339,0.0,0.0,95,0.00,,,0.00,,2013-07-17 10:22:00,
2013-07-17 05:32:00,72.0,70.0,30.30,NNW,339,0.0,0.0,95,0.00,,,0.00,,2013-07-17 10:32:00,
2013-07-17 05:43:00,72.0,70.0,30.30,NNW,339,0.0,0.0,95,0.00,,,0.00,,2013-07-17 10:43:00,
2013-07-17 05:52:00,71.0,69.0,30.31,NNW,339,0.0,0.0,95,0.00,,,0.00,,2013-07-17 10:52:00,
2013-07-17 06:02:00,71.0,69.0,30.31,NNW,339,0.0,0.0,95,0.00,,,0.00,,2013-07-17 11:02:00,
2013-07-17 06:11:00,71.0,69.0,30.31,NNW,339,0.0,0.0,95,0.00,,,0.00,,2013-07-17 11:11:00,
2013-07-17 06:22:00,71.0,70.0,30.31,NNW,339,0.0,0.0,96,0.00,,,0.00,,2013-07-17 11:22:00,
2013-07-17 06:32:00,71.0,70.0,30.31,NNW,339,0.0,0.0,96,0.00,,,0.00,,2013-07-17 11:32:00,
2013-07-17 06:42:00,72.0,71.0,30.32,NNW,339,0.0,0.0,96,0.00,,,0.00,,2013-07-17 11:42:00,
2013-07-17 06:52:00,72.0,71.0,30.32,NNW,339,0.0,0.0,96,0.00,,,0.00,,2013-07-17 11:52:00,
2013-07-17 07:01:00,72.0,71.0,30.32,NNW,339,0.0,0.0,96,0.00,,,0.00,,2013-07-17 12:01:00,
2013-07-17 07:12:00,74.0,72.0,30.32,NNW,339,0.0,0.0,95,0.00,,,0.00,,2013-07-17 12:12:00,
2013-07-17 07:22:00,75.0,73.0,30.32,NNW,339,0.0,0.0,93,0.00,,,0.00,,2013-07-17 12:22:00,
2013-07-17 07:32:00,75.0,73.0,30.32,NNW,339,0.0,0.0,93,0.00,,,0.00,,2013-07-17 12:32:00,
2013-07-17 07:42:00,77.0,73.0,30.33,NNW,340,0.0,0.0,88,0.00,,,0.00,,2013-07-17 12:42:00,
2013-07-17 07:53:00,79.0,74.0,30.33,NNW,339,0.0,0.0,84,0.00,,,0.00,,2013-07-17 12:53:00,
2013-07-17 08:01:00,79.0,74.0,30.33,NNW,339,0.0,0.0,84,0.00,,,0.00,,2013-07-17 13:01:00,
2013-07-17 08:12:00,80.0,74.0,30.33,NNW,340,0.0,0.0,83,0.00,,,0.00,,2013-07-17 13:12:00,
2013-07-17 08:22:00,81.0,74.0,30.34,North,355,0.0,0.0,80,0.00,,,0.00,,2013-07-17 13:22:00,
2013-07-17 08:32:00,81.0,74.0,30.34,North,355,0.0,0.0,80,0.00,,,0.00,,2013-07-17 13:32:00,
2013-07-17 08:43:00,82.0,75.0,30.34,NNE,29,0.0,0.0,79,0.00,,,0.00,,2013-07-17 13:43:00,
2013-07-17 08:52:00,83.0,75.0,30.34,North,355,0.0,0.0,77,0.00,,,0.00,,2013-07-17 13:52:00,
2013-07-17 09:02:00,83.0,75.0,30.34,North,355,0.0,0.0,77,0.00,,,0.00,,2013-07-17 14:02:00,
2013-07-17 09:11:00,83.0,75.0,30.34,North,360,0.0,0.0,77,0.00,,,0.00,,2013-07-17 14:11:00,
2013-07-17 09:22:00,85.0,76.0,30.34,NE,53,0.0,0.0,75,0.00,,,0.00,,2013-07-17 14:22:00,
2013-07-17 09:32:00,85.0,76.0,30.34,NE,53,0.0,0.0,75,0.00,,,0.00,,2013-07-17 14:32:00,
2013-07-17 09:43:00,85.0,75.0,30.33,East,95,0.0,0.0,72,0.00,,,0.00,,2013-07-17 14:43:00,
2013-07-17 09:52:00,85.0,75.0,30.33,North,360,0.0,0.0,73,0.00,,,0.00,,2013-07-17 14:52:00,
2013-07-17 10:02:00,85.0,75.0,30.33,North,360,0.0,0.0,73,0.00,,,0.00,,2013-07-17 15:02:00,
2013-07-17 10:12:00,86.0,75.0,30.33,ENE,72,0.0,0.0,70,0.00,,,0.00,,2013-07-17 15:12:00,
2013-07-17 10:22:00,87.0,76.0,30.32,NNW,348,0.0,0.0,70,0.00,,,0.00,,2013-07-17 15:22:00,
2013-07-17 10:32:00,87.0,76.0,30.32,NNW,348,0.0,0.0,70,0.00,,,0.00,,2013-07-17 15:32:00,
2013-07-17 10:42:00,87.0,76.0,30.33,North,355,0.0,0.0,70,0.00,,,0.00,,2013-07-17 15:42:00,
2013-07-17 10:52:00,88.0,75.0,30.32,North,360,0.0,0.0,66,0.00,,,0.00,,2013-07-17 15:52:00,
2013-07-17 11:02:00,88.0,75.0,30.32,North,360,0.0,0.0,66,0.00,,,0.00,,2013-07-17 16:02:00,
2013-07-17 11:11:00,87.0,75.0,30.32,North,351,0.0,4.0,67,0.00,,,0.00,,2013-07-17 16:11:00,
2013-07-17 11:22:00,89.0,75.0,30.32,NE,41,0.0,0.0,63,0.00,,,0.00,,2013-07-17 16:22:00,
2013-07-17 11:33:00,89.0,75.0,30.32,NE,41,0.0,0.0,63,0.00,,,0.00,,2013-07-17 16:33:00,
2013-07-17 11:42:00,88.0,74.0,30.32,North,355,0.0,5.0,63,0.00,,,0.00,,2013-07-17 16:42:00,
2013-07-17 11:52:00,88.0,73.0,30.31,NW,311,0.0,0.0,62,0.00,,,0.00,,2013-07-17 16:52:00,
2013-07-17 12:02:00,88.0,73.0,30.31,NW,311,0.0,0.0,62,0.00,,,0.00,,2013-07-17 17:02:00,
2013-07-17 12:11:00,88.0,74.0,30.31,NNW,329,2.0,5.0,64,0.00,,,0.00,,2013-07-17 17:11:00,
2013-07-17 12:22:00,89.0,73.0,30.31,NW,306,0.0,3.0,60,0.00,,,0.00,,2013-07-17 17:22:00,
2013-07-17 12:32:00,89.0,73.0,30.31,NW,306,0.0,3.0,60,0.00,,,0.00,,2013-07-17 17:32:00,
2013-07-17 12:43:00,89.0,74.0,30.31,East,90,0.0,0.0,61,0.00,,,0.00,,2013-07-17 17:43:00,
2013-07-17 12:52:00,90.0,75.0,30.30,NW,304,0.0,2.0,62,0.00,,,0.00,,2013-07-17 17:52:00,
2013-07-17 13:01:00,90.0,75.0,30.30,NW,304,0.0,2.0,62,0.00,,,0.00,,2013-07-17 18:01:00,
2013-07-17 13:11:00,90.0,73.0,30.30,ENE,72,0.0,3.0,58,0.00,,,0.00,,2013-07-17 18:11:00,
2013-07-17 13:22:00,91.0,74.0,30.29,NW,322,0.0,5.0,58,0.00,,,0.00,,2013-07-17 18:22:00,
2013-07-17 13:32:00,91.0,74.0,30.29,NW,322,0.0,5.0,58,0.00,,,0.00,,2013-07-17 18:32:00,
2013-07-17 13:43:00,91.0,74.0,30.29,East,96,0.0,0.0,57,0.00,,,0.00,,2013-07-17 18:43:00,
2013-07-17 13:52:00,91.0,73.0,30.29,East,91,0.0,0.0,55,0.00,,,0.00,,2013-07-17 18:52:00,
2013-07-17 14:01:00,91.0,73.0,30.29,East,91,0.0,0.0,55,0.00,,,0.00,,2013-07-17 19:01:00,
2013-07-17 14:11:00,89.0,75.0,30.28,North,355,0.0,0.0,64,0.00,,,0.00,,2013-07-17 19:11:00,
2013-07-17 14:22:00,89.0,75.0,30.28,North,355,0.0,0.0,64,0.00,,,0.00,,2013-07-17 19:22:00,
2013-07-17 14:32:00,90.0,74.0,30.27,NNW,342,0.0,3.0,60,0.00,,,0.00,,2013-07-17 19:32:00,
2013-07-17 14:43:00,91.0,74.0,30.27,North,360,0.0,0.0,57,0.00,,,0.00,,2013-07-17 19:43:00,
2013-07-17 14:53:00,91.0,74.0,30.27,NW,310,1.0,5.0,58,0.00,,,0.00,,2013-07-17 19:53:00,
2013-07-17 15:02:00,91.0,74.0,30.27,NW,310,1.0,5.0,58,0.00,,,0.00,,2013-07-17 20:02:00,
2013-07-17 15:11:00,91.0,74.0,30.26,WNW,290,0.0,3.0,58,0.00,,,0.00,,2013-07-17 20:11:00,
2013-07-17 15:22:00,91.0,73.0,30.25,NW,310,0.0,2.0,55,0.00,,,0.00,,2013-07-17 20:22:00,
2013-07-17 15:33:00,91.0,73.0,30.25,NW,310,0.0,2.0,55,0.00,,,0.00,,2013-07-17 20:33:00,
2013-07-17 15:43:00,91.0,73.0,30.25,NW,325,0.0,2.0,56,0.00,,,0.00,,2013-07-17 20:43:00,
2013-07-17 15:52:00,92.0,72.0,30.24,NW,313,0.0,2.0,52,0.00,,,0.00,,2013-07-17 20:52:00,
2013-07-17 16:02:00,92.0,72.0,30.24,NW,313,0.0,2.0,52,0.00,,,0.00,,2013-07-17 21:02:00,
2013-07-17 16:12:00,92.0,73.0,30.23,West,279,0.0,2.0,54,0.00,,,0.00,,2013-07-17 21:12:00,
2013-07-17 16:22:00,92.0,73.0,30.23,NNW,339,0.0,0.0,54,0.00,,,0.00,,2013-07-17 21:22:00,
2013-07-17 16:32:00,92.0,73.0,30.23,NNW,339,0.0,0.0,54,0.00,,,0.00,,2013-07-17 21:32:00,
2013-07-17 16:42:00,92.0,73.0,30.22,North,9,0.0,0.0,54,0.00,,,0.00,,2013-07-17 21:42:00,
2013-07-17 16:52:00,92.0,75.0,30.22,NNW,340,0.0,2.0,57,0.00,,,0.00,,2013-07-17 21:52:00,
2013-07-17 17:01:00,92.0,75.0,30.22,NNW,340,0.0,2.0,57,0.00,,,0.00,,2013-07-17 22:01:00,
2013-07-17 17:11:00,92.0,72.0,30.22,ENE,69,0.0,0.0,53,0.00,,,0.00,,2013-07-17 22:11:00,
2013-07-17 17:22:00,92.0,72.0,30.22,North,360,0.0,0.0,53,0.00,,,0.00,,2013-07-17 22:22:00,
2013-07-17 17:32:00,92.0,72.0,30.22,North,360,0.0,0.0,53,0.00,,,0.00,,2013-07-17 22:32:00,
2013-07-17 17:43:00,92.0,72.0,30.21,North,349,0.0,0.0,53,0.00,,,0.00,,2013-07-17 22:43:00,
2013-07-17 17:53:00,92.0,72.0,30.21,NW,313,0.0,0.0,52,0.00,,,0.00,,2013-07-17 22:53:00,
2013-07-17 18:02:00,92.0,72.0,30.21,NW,313,0.0,0.0,52,0.00,,,0.00,,2013-07-17 23:02:00,
2013-07-17 18:11:00,92.0,72.0,30.20,North,355,0.0,0.0,53,0.00,,,0.00,,2013-07-17 23:11:00,
2013-07-17 18:22:00,91.0,73.0,30.20,North,355,0.0,0.0,55,0.00,,,0.00,,2013-07-17 23:22:00,
2013-07-17 18:32:00,91.0,73.0,30.20,North,355,0.0,0.0,55,0.00,,,0.00,,2013-07-17 23:32:00,
2013-07-17 18:43:00,91.0,75.0,30.20,North,355,0.0,0.0,59,0.00,,,0.00,,2013-07-17 23:43:00,
2013-07-17 18:52:00,91.0,75.0,30.20,North,355,0.0,0.0,59,0.00,,,0.00,,2013-07-17 23:52:00,
2013-07-17 19:01:00,91.0,75.0,30.20,North,355,0.0,0.0,59,0.00,,,0.00,,2013-07-18 00:01:00,
2013-07-17 19:11:00,90.0,73.0,30.20,North,355,0.0,0.0,57,0.00,,,0.00,,2013-07-18 00:11:00,
2013-07-17 19:22:00,90.0,76.0,30.20,North,355,0.0,0.0,63,0.00,,,0.00,,2013-07-18 00:22:00,
2013-07-17 19:33:00,90.0,76.0,30.20,North,355,0.0,0.0,63,0.00,,,0.00,,2013-07-18 00:33:00,
2013-07-17 19:43:00,89.0,76.0,30.19,North,355,0.0,0.0,66,0.00,,,0.00,,2013-07-18 00:43:00,
2013-07-17 19:52:00,87.0,76.0,30.19,North,355,0.0,0.0,71,0.00,,,0.00,,2013-07-18 00:52:00,
2013-07-17 20:01:00,87.0,76.0,30.19,North,355,0.0,0.0,71,0.00,,,0.00,,2013-07-18 01:01:00,
2013-07-17 20:11:00,86.0,77.0,30.19,North,355,0.0,0.0,74,0.00,,,0.00,,2013-07-18 01:11:00,
2013-07-17 20:22:00,84.0,76.0,30.19,North,355,0.0,0.0,78,0.00,,,0.00,,2013-07-18 01:22:00,
2013-07-17 20:32:00,84.0,76.0,30.19,North,355,0.0,0.0,78,0.00,,,0.00,,2013-07-18 01:32:00,
2013-07-17 20:43:00,83.0,77.0,30.20,North,355,0.0,0.0,81,0.00,,,0.00,,2013-07-18 01:43:00,
2013-07-17 20:53:00,82.0,77.0,30.20,North,355,0.0,0.0,84,0.00,,,0.00,,2013-07-18 01:53:00,
2013-07-17 21:02:00,82.0,77.0,30.20,North,355,0.0,0.0,84,0.00,,,0.00,,2013-07-18 02:02:00,
2013-07-17 21:11:00,81.0,76.0,30.20,North,355,0.0,0.0,86,0.00,,,0.00,,2013-07-18 02:11:00,
2013-07-17 21:22:00,80.0,76.0,30.21,North,355,0.0,0.0,87,0.00,,,0.00,,2013-07-18 02:22:00,
2013-07-17 21:32:00,80.0,76.0,30.21,North,355,0.0,0.0,87,0.00,,,0.00,,2013-07-18 02:32:00,
2013-07-17 21:43:00,79.0,75.0,30.21,North,355,0.0,0.0,88,0.00,,,0.00,,2013-07-18 02:43:00,
2013-07-17 21:52:00,79.0,75.0,30.21,North,355,0.0,0.0,89,0.00,,,0.00,,2013-07-18 02:52:00,
2013-07-17 22:01:00,79.0,75.0,30.21,North,355,0.0,0.0,89,0.00,,,0.00,,2013-07-18 03:01:00,
2013-07-17 22:11:00,79.0,75.0,30.22,North,355,0.0,0.0,89,0.00,,,0.00,,2013-07-18 03:11:00,
2013-07-17 22:22:00,78.0,74.0,30.22,North,355,0.0,0.0,89,0.00,,,0.00,,2013-07-18 03:22:00,
2013-07-17 22:32:00,78.0,74.0,30.22,North,355,0.0,0.0,89,0.00,,,0.00,,2013-07-18 03:32:00,
2013-07-17 22:43:00,78.0,75.0,30.21,North,355,0.0,0.0,90,0.00,,,0.00,,2013-07-18 03:43:00,
2013-07-17 22:52:00,77.0,74.0,30.21,North,355,0.0,0.0,90,0.00,,,0.00,,2013-07-18 03:52:00,
2013-07-17 23:02:00,77.0,74.0,30.21,North,355,0.0,0.0,90,0.00,,,0.00,,2013-07-18 04:02:00,
2013-07-17 23:12:00,77.0,74.0,30.21,North,355,0.0,0.0,89,0.00,,,0.00,,2013-07-18 04:12:00,
2013-07-17 23:22:00,77.0,74.0,30.21,North,355,0.0,0.0,89,0.00,,,0.00,,2013-07-18 04:22:00,
2013-07-17 23:32:00,77.0,74.0,30.21,North,355,0.0,0.0,89,0.00,,,0.00,,2013-07-18 04:32:00,
2013-07-17 23:43:00,76.0,73.0,30.21,North,355,0.0,0.0,89,0.00,,,0.00,,2013-07-18 04:43:00,
2013-07-17 23:52:00,76.0,73.0,30.22,North,355,0.0,0.0,90,0.00,,,0.00,,2013-07-18 04:52:00,